Location: Sevilla
(37.3933°N, 5.9839°W)
Time: 05:01:03
(UTC+02:00)

Transit 2A Rocket - Pass Details

Date: 04 July 2024
Orbit: 582 x 910 km, 66.7° (Epoch: 15 July)

Event Time Altitude Azimuth Distance (km) Brightness Sun altitude
Rises 06:29:49 0° 311° (NW) 3,544 8.3 -7.3°
Reaches altitude 10° 06:33:38 10° 288° (WNW) 2,587 7.4 -6.7°
Maximum altitude 06:36:36 14° 258° (WSW) 2,281 6.9 -6.2°
Drops below altitude 10° 06:39:31 10° 228° (SW) 2,530 7.0 -5.7°
Enters shadow 06:42:30 - 208° (SSW) 3,215 7.7 -5.2°
Sets 06:43:12 0° 205° (SSW) 3,411 - -5.1°
